| time (UTC) | temp C | wind direction | speed KPH | gust KPH | rain 1hr cm | rain 24hr cm | rain mn cm | humidity % | barometer mb |
| 20260505035054 | 8 | 180 | 1.6 | 4.8 | 0.00 | 0.00 | 0.00 | 66 | 1000.7 |
| 20260505034041 | 8 | 180 | 0.0 | 3.2 | 0.00 | 0.00 | 0.00 | 65 | 1001.1 |
| 20260505033036 | 9 | 180 | 0.0 | 3.2 | 0.00 | 0.00 | 0.00 | 63 | 1001.4 |
| 20260505032037 | 9 | 180 | 0.0 | 3.2 | 0.00 | 0.00 | 0.00 | 63 | 1001.4 |
| 20260505031032 | 9 | 180 | 1.6 | 4.8 | 0.00 | 0.00 | 0.00 | 61 | 1001.7 |
| 20260505030022 | 10 | 180 | 3.2 | 6.4 | 0.00 | 0.00 | 0.00 | 59 | 1002.3 |
| 20260505025019 | 10 | 180 | 4.8 | 8.0 | 0.00 | 0.00 | 0.00 | 59 | 1002.3 |
| 20260505024019 | 10 | 180 | 3.2 | 6.4 | 0.00 | 0.00 | 0.00 | 62 | 1001.9 |
| 20260505023018 | 10 | 180 | 1.6 | 4.8 | 0.00 | 0.00 | 0.00 | 60 | 1002.3 |
| 20260505022020 | 11 | 201 | 0.0 | 3.2 | 0.00 | 0.00 | 0.00 | 58 | 1002.7 |
| 20260505021000 | 11 | 243 | 0.0 | 1.6 | 0.00 | 0.00 | 0.00 | 58 | 1003.0 |
| 20260505015955 | 11 | 243 | 1.6 | 3.2 | 0.00 | 0.00 | 0.00 | 58 | 1002.9 |
| 20260505014956 | 11 | 249 | 4.8 | 8.0 | 0.00 | 0.00 | 0.00 | 57 | 1002.9 |
| 20260505013955 | 12 | 285 | 0.0 | 8.0 | 0.00 | 0.00 | 0.00 | 57 | 1003.0 |
| 20260505012953 | 12 | 107 | 0.0 | 0.0 | 0.00 | 0.00 | 0.00 | 53 | 1002.9 |
| 20260505011954 | 12 | 107 | 1.6 | 3.2 | 0.00 | 0.00 | 0.00 | 55 | 1003.0 |
| 20260505010938 | 11 | 107 | 3.2 | 4.8 | 0.00 | 0.00 | 0.00 | 57 | 1002.7 |
| 20260505004937 | 12 | 103 | 3.2 | 4.8 | 0.00 | 0.00 | 0.00 | 56 | 1003.0 |
| 20260505003930 | 11 | 350 | 0.0 | 3.2 | 0.00 | 0.00 | 0.00 | 56 | 1002.9 |
| 20260505002906 | 11 | 322 | 9.7 | 17.7 | 0.00 | 0.00 | 0.00 | 56 | 1003.1 |
| 20260505001904 | 11 | 333 | 12.9 | 20.9 | 0.00 | 0.00 | 0.00 | 56 | 1003.4 |
| 20260505000903 | 12 | 319 | 14.5 | 25.7 | 0.00 | 0.00 | 0.00 | 53 | 1003.5 |
| 20260504235902 | 12 | 321 | 14.5 | 20.9 | 0.00 | 0.00 | 0.00 | 53 | 1003.8 |
| 20260504234902 | 12 | 312 | 16.1 | 22.5 | 0.00 | 0.00 | 0.00 | 52 | 1004.1 |
| 20260504233901 | 12 | 318 | 14.5 | 22.5 | 0.00 | 0.00 | 0.00 | 51 | 1004.5 |
| 20260504232856 | 13 | 306 | 11.3 | 22.5 | 0.00 | 0.00 | 0.00 | 49 | 1004.7 |
| 20260504231855 | 13 | 278 | 14.5 | 25.7 | 0.00 | 0.00 | 0.00 | 49 | 1005.0 |
| 20260504225855 | 13 | 218 | 22.5 | 40.2 | 0.00 | 0.00 | 0.00 | 47 | 1004.6 |
| 20260504224857 | 14 | 241 | 22.5 | 38.6 | 0.00 | 0.00 | 0.00 | 46 | 1005.0 |
| 20260504220845 | 16 | 160 | 11.3 | 22.5 | 0.00 | 0.00 | 0.00 | 42 | 1005.5 |
| 20260504215843 | 16 | 185 | 16.1 | 30.6 | 0.00 | 0.00 | 0.00 | 39 | 1005.6 |
| 20260504214842 | 16 | 185 | 9.7 | 20.9 | 0.00 | 0.00 | 0.00 | 38 | 1005.9 |
| 20260504213840 | 16 | 162 | 11.3 | 20.9 | 0.00 | 0.00 | 0.00 | 41 | 1005.6 |
| 20260504212840 | 16 | 151 | 12.9 | 20.9 | 0.00 | 0.00 | 0.00 | 42 | 1005.6 |
| 20260504211839 | 16 | 195 | 17.7 | 29.0 | 0.00 | 0.00 | 0.00 | 41 | 1005.5 |
| 20260504210839 | 16 | 156 | 19.3 | 35.4 | 0.00 | 0.00 | 0.00 | 39 | 1006.2 |
| 20260504204834 | 17 | 121 | 14.5 | 27.4 | 0.00 | 0.00 | 0.00 | 34 | 1006.5 |
| 20260504202831 | 18 | 346 | 9.7 | 20.9 | 0.00 | 0.00 | 0.00 | 33 | 1007.5 |
| 20260504201833 | 17 | 330 | 11.3 | 29.0 | 0.00 | 0.00 | 0.00 | 34 | 1007.5 |
| 20260504200830 | 17 | 39 | 14.5 | 27.4 | 0.00 | 0.00 | 0.00 | 36 | 1007.4 |
| 20260504193831 | 16 | 341 | 16.1 | 29.0 | 0.00 | 0.00 | 0.00 | 36 | 1006.8 |
| 20260504192831 | 16 | 320 | 12.9 | 24.1 | 0.00 | 0.00 | 0.00 | 35 | 1006.5 |
| 20260504191830 | 16 | 331 | 12.9 | 19.3 | 0.00 | 0.00 | 0.00 | 36 | 1006.4 |
| 20260504190829 | 16 | 281 | 9.7 | 17.7 | 0.00 | 0.00 | 0.00 | 34 | 1006.7 |
| 20260504185827 | 16 | 267 | 8.0 | 17.7 | 0.00 | 0.00 | 0.00 | 37 | 1006.8 |
| 20260504184825 | 16 | 255 | 6.4 | 16.1 | 0.00 | 0.00 | 0.00 | 37 | 1006.9 |
| 20260504182825 | 16 | 228 | 6.4 | 16.1 | 0.00 | 0.00 | 0.00 | 37 | 1007.0 |
| 20260504181824 | 17 | 226 | 6.4 | 9.7 | 0.00 | 0.00 | 0.00 | 36 | 1007.3 |
| 20260504180824 | 17 | 247 | 3.2 | 9.7 | 0.00 | 0.00 | 0.00 | 34 | 1007.8 |
| 20260504175822 | 17 | 151 | 3.2 | 6.4 | 0.00 | 0.00 | 0.00 | 33 | 1007.6 |
| 20260504173817 | 17 | 175 | 1.6 | 4.8 | 0.00 | 0.00 | 0.00 | 33 | 1007.9 |
| 20260504171801 | 18 | 197 | 4.8 | 8.0 | 0.00 | 0.00 | 0.00 | 33 | 1008.6 |
| 20260504170800 | 18 | 115 | 3.2 | 8.0 | 0.00 | 0.00 | 0.00 | 33 | 1008.7 |
| 20260504150732 | 11 | 116 | 0.0 | 0.0 | 0.00 | 0.00 | 0.00 | 53 | 1004.6 |
| 20260504140700 | 7 | 226 | 1.6 | 4.8 | 0.00 | 0.00 | 0.00 | 58 | 1001.9 |
| 20260504130637 | 4 | 180 | 0.0 | 0.0 | 0.00 | 0.00 | 0.00 | 59 | 1000.0 |
| 20260504110505 | 4 | 180 | 0.0 | 3.2 | 0.00 | 0.00 | 0.00 | 57 | 999.6 |
| 20260504100450 | 5 | 180 | 1.6 | 6.4 | 0.00 | 0.00 | 0.00 | 54 | 1000.2 |
| 20260504081409 | 7 | 180 | 1.6 | 6.4 | 0.00 | 0.00 | 0.00 | 44 | 1001.3 |
| 20260504080404 | 7 | 180 | 3.2 | 16.1 | 0.00 | 0.00 | 0.00 | 43 | 1001.9 |
| 20260504070353 | 8 | 180 | 6.4 | 19.3 | 0.00 | 0.00 | 0.00 | 40 | 1002.9 |
| 20260504050322 | 10 | 79 | 8.0 | 14.5 | 0.00 | 0.00 | 0.00 | 36 | 1005.1 |
| 20260504045319 | 11 | 83 | 4.8 | 11.3 | 0.00 | 0.00 | 0.00 | 35 | 1005.5 |
| 20260504043317 | 11 | 77 | 4.8 | 11.3 | 0.00 | 0.00 | 0.00 | 33 | 1006.1 |
| 20260504042314 | 12 | 83 | 6.4 | 11.3 | 0.00 | 0.00 | 0.00 | 32 | 1006.2 |
| 20260504041313 | 12 | 114 | 6.4 | 11.3 | 0.00 | 0.00 | 0.00 | 31 | 1006.3 |
| 20260504040310 | 12 | 86 | 4.8 | 9.7 | 0.00 | 0.00 | 0.00 | 29 | 1006.3 |